User: anonymous   Login
Location: Unspecified
(0.0000°N, 0.0000°E)
Time: 20:54:18
(UTC+00:00)
Language:

USA 264 DEB - Orbit

View from above orbital plane
View from above orbital plane
View from above satellite
View from above satellite

Ground track
Ground track

The orbit data is extracted from the following two-line orbital elements,

1 40981U 15058R   18133.84761078 0.00000000  00000-0  00000-0 0    01
2 40981  63.4359  39.6436 0048000 171.9475 188.0525 13.40754758    04
Epoch (UTC): 13 May 2018 20:20:33
Eccentricity: 0.0048000
inclination: 63.4359°
perigee height: 1070 km
apogee height: 1142 km
right ascension of ascending node: 39.6436°
argument of perigee: 171.9475°
revolutions per day: 13.40754758
mean anomaly at epoch: 188.0525°
orbit number at epoch: 0

The dashed part of the orbit path shows where the satellite is in the earth's shadow,  

DLR